Weather History for Jamestown, NY

Change the Weather History Date:

Friday, June 13, 2014

  Actual Average Record
Temperature  
Mean Temperature 62 °F -  
Max Temperature 69 °F 75 °F 86 °F (1988)
Min Temperature 53 °F 48 °F 33 °F (1979)
Degree Days  
Heating Degree Days 3    
Growing Degree Days 12 (Base 50)    
Moisture  
Dew Point 59 °F    
Average Humidity 86    
Maximum Humidity 100    
Minimum Humidity 63    
Precipitation  
Precipitation 0.00 in - - ()
Sea Level Pressure  
Sea Level Pressure 29.85 in    
Wind  
Wind Speed 6 mph (WSW)    
Max Wind Speed 15 mph    
Max Gust Speed 22 mph    
Visibility 7 miles    
Events Thunderstorm    
Averages and records for this station are not official NWS values.
T = Trace of Precipitation, MM = Missing Value Source: NWS Daily Summary

Daily Weather History Graph

Daily Weather History Graph

Search for Another Location

Airport:

Trip Planner

Search our weather history database for the weather conditions in past years. The results will help you decide how hot, cold, wet, or windy it might be!

Date:

Astronomy

Jun. 13, 2014 Rise Set
Actual Time 5:40 AM EDT 8:54 PM EDT
Civil Twilight 5:05 AM EDT 9:28 PM EDT
Nautical Twilight 4:21 AM EDT 10:13 PM EDT
Astronomical Twilight 3:27 AM EDT 11:06 PM EDT
Moon 9:21 PM EDT (6/13) 6:19 AM EDT (6/13)
Length of Visible Light 16h 22m
Length of Day
15h 13m
Full, 100% of the Moon is Illuminated
Jun 13
Full
Jun 19
Last Quarter
Jun 27
New
Jul 5
First Quarter
Jul 12
Full

Hourly Weather History & Observations

Time (EDT) Temp. Dew Point Humidity Pressure Visibility Wind Dir Wind Speed Gust Speed Precip Events Conditions
12:15 AM 64.4 °F 62.6 °F 94% 29.84 in 1.8 mi South 3.5 mph - N/A   Overcast
12:35 AM 64.4 °F 62.6 °F 94% 29.84 in 2.5 mi Calm Calm - N/A   Mostly Cloudy
12:55 AM 62.6 °F 62.6 °F 100% 29.84 in 2.0 mi Calm Calm - N/A   Overcast
1:15 AM 64.4 °F 62.6 °F 94% 29.84 in 2.0 mi SSW 3.5 mph - N/A   Overcast
1:35 AM 64.4 °F 62.6 °F 94% 29.83 in 3.0 mi SW 4.6 mph - N/A   Mostly Cloudy
1:55 AM 64.4 °F 62.6 °F 94% 29.82 in 3.0 mi WSW 4.6 mph - N/A   Overcast
2:15 AM 64.4 °F 62.6 °F 94% 29.82 in 5.0 mi South 3.5 mph - N/A   Overcast
2:35 AM 64.4 °F 62.6 °F 94% 29.82 in 5.0 mi South 4.6 mph - N/A   Overcast
2:55 AM 64.4 °F 62.6 °F 94% 29.82 in 0.5 mi SSW 3.5 mph - N/A   Overcast
3:15 AM 62.6 °F 62.6 °F 100% 29.82 in 0.8 mi South 5.8 mph - N/A   Overcast
3:35 AM 62.6 °F 62.6 °F 100% 29.81 in 5.0 mi South 5.8 mph - N/A   Overcast
3:55 AM 62.6 °F 62.6 °F 100% 29.81 in 5.0 mi South 3.5 mph - N/A   Overcast
4:15 AM 62.6 °F 62.6 °F 100% 29.81 in 3.0 mi South 5.8 mph - N/A   Overcast
4:35 AM 62.6 °F 62.6 °F 100% 29.81 in 5.0 mi SW 3.5 mph - N/A   Overcast
4:55 AM 62.6 °F 62.6 °F 100% 29.80 in 4.0 mi South 4.6 mph - N/A   Overcast
5:15 AM 62.6 °F 62.6 °F 100% 29.80 in 1.0 mi South 4.6 mph - N/A   Overcast
5:35 AM 62.6 °F 62.6 °F 100% 29.80 in 0.8 mi South 3.5 mph - N/A   Overcast
5:55 AM 62.6 °F 62.6 °F 100% 29.81 in 0.5 mi SSW 3.5 mph - N/A   Overcast
6:15 AM 62.6 °F 62.6 °F 100% 29.80 in 1.0 mi South 5.8 mph - N/A   Overcast
6:35 AM 64.4 °F 62.6 °F 94% 29.81 in 1.2 mi South 3.5 mph - N/A   Overcast
6:55 AM 64.4 °F 62.6 °F 94% 29.81 in 4.0 mi Calm Calm - N/A   Overcast
7:15 AM 64.4 °F 62.6 °F 94% 29.82 in 3.0 mi SW 4.6 mph - N/A   Overcast
7:35 AM 62.6 °F 62.6 °F 100% 29.82 in 5.0 mi SW 6.9 mph - N/A   Mostly Cloudy
7:55 AM 64.4 °F 62.6 °F 94% 29.83 in 6.0 mi SW 6.9 mph - N/A   Scattered Clouds
8:15 AM 64.4 °F 62.6 °F 94% 29.83 in 5.0 mi SSW 5.8 mph - N/A   Overcast
8:35 AM 64.4 °F 62.6 °F 94% 29.83 in 8.0 mi SSW 6.9 mph - N/A   Overcast
8:55 AM 64.4 °F 62.6 °F 94% 29.84 in 9.0 mi SW 8.1 mph - N/A   Mostly Cloudy
9:15 AM 66.2 °F 62.6 °F 88% 29.83 in 10.0 mi SW 6.9 mph - N/A   Mostly Cloudy
9:35 AM 66.2 °F 62.6 °F 88% 29.83 in 10.0 mi SSW 6.9 mph - N/A   Mostly Cloudy
9:55 AM 66.2 °F 62.6 °F 88% 29.83 in 10.0 mi SSW 6.9 mph - N/A   Mostly Cloudy
10:15 AM 68.0 °F 62.6 °F 83% 29.83 in 10.0 mi SSW 5.8 mph - N/A   Mostly Cloudy
10:35 AM 68.0 °F 62.6 °F 83% 29.83 in 10.0 mi SSW 9.2 mph - N/A   Mostly Cloudy
11:15 AM 69.8 °F 62.6 °F 78% 29.82 in 10.0 mi SW 9.2 mph - N/A   Overcast
11:35 AM 69.8 °F 62.6 °F 78% 29.83 in 10.0 mi SSW 8.1 mph - N/A   Mostly Cloudy
11:55 AM 69.8 °F 62.6 °F 78% 29.83 in 10.0 mi SW 9.2 mph - N/A   Overcast
12:15 PM 69.8 °F 62.6 °F 78% 29.83 in 10.0 mi SW 10.4 mph - N/A Thunderstorm Mostly Cloudy
12:35 PM 66.2 °F 57.2 °F 73% 29.83 in 10.0 mi West 15.0 mph 21.9 mph N/A Thunderstorm Mostly Cloudy
1:15 PM 62.6 °F 59.0 °F 88% 29.82 in 8.0 mi NW 4.6 mph - N/A Thunderstorm Thunderstorm
1:35 PM 62.6 °F 60.8 °F 94% 29.83 in 10.0 mi SW 6.9 mph - N/A   Mostly Cloudy
1:55 PM 64.4 °F 60.8 °F 88% 29.84 in 8.0 mi West 6.9 mph - N/A   Overcast
2:15 PM 64.4 °F 60.8 °F 88% 29.83 in 7.0 mi WNW 9.2 mph - N/A   Overcast
2:35 PM 64.4 °F 60.8 °F 88% 29.84 in 7.0 mi WNW 9.2 mph - N/A   Overcast
2:55 PM 64.4 °F 59.0 °F 83% 29.85 in 9.0 mi WNW 9.2 mph - N/A   Overcast
3:15 PM 64.4 °F 57.2 °F 77% 29.85 in 10.0 mi WNW 10.4 mph - N/A   Mostly Cloudy
3:35 PM 64.4 °F 57.2 °F 77% 29.85 in 10.0 mi NW 9.2 mph - N/A   Mostly Cloudy
3:55 PM 64.4 °F 57.2 °F 77% 29.84 in 10.0 mi WNW 10.4 mph - N/A   Mostly Cloudy
4:15 PM 64.4 °F 57.2 °F 77% 29.84 in 10.0 mi West 10.4 mph - N/A   Mostly Cloudy
4:35 PM 66.2 °F 55.4 °F 68% 29.84 in 10.0 mi WSW 13.8 mph 20.7 mph N/A   Mostly Cloudy
5:15 PM 62.6 °F 53.6 °F 72% 29.85 in 10.0 mi WSW 9.2 mph - N/A   Overcast
7:35 PM 62.6 °F 50.0 °F 63% 29.88 in 10.0 mi West 13.8 mph 18.4 mph N/A   Scattered Clouds
7:55 PM 62.6 °F 51.8 °F 68% 29.89 in 10.0 mi West 8.1 mph - N/A   Partly Cloudy
8:15 PM 60.8 °F 50.0 °F 68% 29.90 in 10.0 mi West 10.4 mph - N/A   Scattered Clouds
8:35 PM 60.8 °F 50.0 °F 68% 29.90 in 10.0 mi West 8.1 mph - N/A   Scattered Clouds
8:55 PM 57.2 °F 51.8 °F 82% 29.90 in 10.0 mi WNW 6.9 mph - N/A   Partly Cloudy
9:15 PM 57.2 °F 51.8 °F 82% 29.90 in 10.0 mi WNW 8.1 mph - N/A   Mostly Cloudy
9:35 PM 57.2 °F 51.8 °F 82% 29.91 in 10.0 mi NW 9.2 mph - N/A   Overcast
9:55 PM 57.2 °F 50.0 °F 77% 29.92 in 10.0 mi NW 9.2 mph - N/A   Overcast
10:15 PM 57.2 °F 48.2 °F 72% 29.93 in 10.0 mi NW 11.5 mph - N/A   Overcast
10:35 PM 55.4 °F 48.2 °F 77% 29.94 in 10.0 mi NW 13.8 mph 18.4 mph N/A   Overcast
10:55 PM 55.4 °F 48.2 °F 77% 29.95 in 10.0 mi WNW 12.7 mph - N/A   Overcast
11:15 PM 55.4 °F 46.4 °F 72% 29.95 in 10.0 mi NW 10.4 mph 17.3 mph N/A   Overcast
11:35 PM 55.4 °F 46.4 °F 72% 29.95 in 10.0 mi NW 8.1 mph - N/A   Overcast
11:55 PM 53.6 °F 46.4 °F 77% 29.96 in 10.0 mi NW 6.9 mph - N/A   Overcast